Wind_Speed
33 30 32 28 21 27 22 9 10 30 34 29 28 25 18 9 9 8 11 5 8 9 5 2 2 5 6 8 11 11 9 9 6 7 7 4 6 12 11 14 17 19 16 17
33 31 36 33 29 23 36 20 14 12 24 25 26 18 17 5 2 4 6 9 9 9 11 7 5 7 9 9 9 9 11 10 10 12 12 11 8 12 13 18 21 19 18 19
35 37 36 35 32 28 36 32 27 35 34 30 29 24 18 2 8 2 10 10 12 10 13 16 13 11 10 7 7 9 11 14 17 17 16 17 18 18 16 18 20 18 18 19
39 40 38 36 37 34 31 35 37 37 32 26 22 23 13 14 8 3 10 16 12 16 12 13 16 18 20 16 14 12 11 11 13 16 16 19 21 22 24 26 25 21 23 21
43 43 41 40 39 39 34 33 32 29 22 21 23 23 20 20 17 8 10 18 17 16 19 16 11 15 18 23 21 12 11 12 9 5 6 11 15 17 18 19 22 23 21 22
44 47 47 43 41 40 36 34 36 33 28 25 28 25 33 30 29 12 12 18 16 20 21 21 16 14 16 17 16 19 18 13 13 8 8 8 8 6 6 9 11 12 14 17
48 49 49 50 48 47 43 38 37 34 30 27 34 26 33 36 37 20 23 20 20 27 22 27 22 17 16 18 19 22 24 20 16 15 8 6 11 12 12 10 11 12 14 14
44 48 53 52 49 49 46 44 41 40 36 32 33 34 34 33 41 39 27 18 19 22 28 19 24 29 20 21 23 25 24 20 15 12 12 15 18 17 18 16 13 12 10 9
37 47 56 56 52 48 48 46 49 45 41 36 36 39 37 37 34 34 37 32 31 18 33 27 28 33 31 23 27 29 30 28 23 19 17 19 18 20 21 21 19 18 15 12
26 36 44 50 52 53 51 56 53 51 47 42 41 41 44 47 38 40 31 37 35 36 30 41 29 34 34 32 29 33 34 33 28 26 24 23 22 22 22 22 22 22 21 19
15 21 37 40 46 55 56 59 58 54 51 46 40 38 50 47 41 43 36 34 35 44 40 36 31 32 35 36 35 35 37 37 36 32 31 29 27 27 25 25 25 25 26 23
21 16 21 34 44 40 46 56 62 59 55 51 43 37 49 56 53 56 44 41 51 42 34 35 30 33 34 36 38 40 40 39 39 38 36 33 31 28 28 29 29 29 25 30
21 20 15 21 28 32 38 42 50 60 62 59 52 45 59 60 54 56 54 54 51 37 26 30 34 33 38 38 38 41 43 45 42 41 42 40 33 31 29 30 29 28 29 28
22 19 17 17 12 19 27 34 39 51 60 63 59 56 63 61 58 57 54 54 51 43 45 37 38 35 39 40 41 44 47 46 46 45 45 44 37 33 28 33 34 29 28 28
22 21 18 16 16 15 13 22 34 41 49 55 61 64 63 67 69 65 62 55 46 48 51 50 50 43 41 42 42 43 45 47 50 49 48 46 42 41 38 36 37 33 33 34
21 21 21 18 18 16 12 11 13 25 37 43 52 63 69 73 80 78 73 60 48 46 47 53 57 53 46 45 47 45 43 45 46 46 47 45 39 40 36 35 34 36 38 36
22 23 22 20 19 21 17 13 10 9 17 32 42 47 58 69 73 80 66 56 42 43 53 60 65 59 50 48 48 49 46 45 47 47 47 47 40 38 35 33 31 34 37 36
24 23 25 24 20 23 22 19 19 16 15 13 15 27 41 50 56 66 59 42 20 24 66 73 75 72 66 52 51 51 50 49 48 48 47 46 42 38 34 31 33 33 34 37
25 26 26 25 25 27 28 25 25 24 27 16 17 16 21 35 47 47 36 39 34 29 53 63 68 77 77 65 57 57 56 55 51 50 49 47 41 36 33 33 34 39 38 39
29 30 28 29 29 30 34 35 34 28 33 26 24 25 25 24 32 38 44 49 47 43 52 56 65 68 72 74 67 67 65 62 57 53 52 47 43 38 33 36 37 39 41 43
33 32 31 33 34 35 39 40 40 35 29 33 29 30 31 28 27 35 50 70 60 60 53 56 63 68 68 72 71 73 74 71 66 59 56 50 46 42 39 39 41 44 44 44
38 38 39 41 42 43 43 42 42 40 32 29 33 36 41 38 34 39 36 53 56 71 70 64 73 74 58 59 63 67 72 73 71 67 62 55 49 42 43 44 44 43 44 40
43 45 44 46 48 50 47 46 47 45 46 44 43 43 48 52 43 34 42 52 59 64 64 70 67 67 60 57 55 59 61 67 72 71 67 61 52 46 46 46 44 40 43 43
45 49 47 49 51 51 55 52 49 50 52 55 57 57 58 47 50 44 44 47 64 52 64 73 74 72 72 72 58 60 67 64 61 71 68 66 58 58 52 51 40 43 44 48
53 56 57 51 48 49 49 51 53 55 59 61 64 60 56 55 51 51 51 54 59 69 63 64 68 75 77 76 79 73 71 72 70 62 64 66 64 59 54 51 46 46 44 53
60 61 61 58 59 59 61 64 67 68 65 61 60 62 62 63 61 54 56 60 63 65 65 69 70 62 65 72 75 73 74 78 73 67 67 61 55 51 55 45 52 51 50 58
Wind_Direction
257 258 256 249 225 199 187 125 339 312 287 247 249 291 299 303 325 312 255 239 284 248 229 181 160 171 167 157 164 165 166 167 173 182 205 203 216 241 235 241 248 253 257 273
252 249 249 249 241 209 181 186 191 157 297 279 267 284 278 307 323 327 14 298 240 269 223 216 189 164 155 160 178 189 205 218 224 222 214 224 233 251 256 264 251 254 268 278
250 246 247 248 247 232 205 211 225 209 251 273 276 272 270 288 273 276 325 315 266 238 245 227 226 211 194 219 239 260 256 253 259 261 262 256 245 241 243 258 262 269 266 275
248 248 247 246 249 245 232 231 238 244 249 257 251 255 225 196 165 20 286 290 274 222 228 242 243 234 235 239 253 272 272 276 261 253 261 264 264 259 255 254 261 260 268 274
244 248 249 249 247 251 248 242 245 246 254 249 246 230 198 207 191 265 339 267 273 263 221 232 241 239 244 247 244 232 241 261 226 236 289 291 269 263 265 264 258 258 264 267
239 241 244 247 250 251 250 248 247 242 239 247 251 226 206 218 208 223 237 252 248 248 249 227 233 252 239 249 223 213 211 220 216 253 306 335 326 336 306 292 284 275 272 277
235 238 239 241 242 245 245 245 248 245 239 238 248 237 219 217 213 222 243 249 292 277 256 233 233 241 248 231 229 222 225 231 238 253 260 306 331 320 304 306 301 299 296 299
243 238 240 239 242 244 246 245 245 246 243 237 247 249 227 218 223 225 229 221 260 273 242 252 247 249 247 233 228 228 228 230 245 251 254 282 293 296 305 310 293 295 293 287
244 238 239 238 234 239 245 246 245 244 244 235 241 247 239 234 216 224 233 198 198 236 265 254 269 246 247 238 233 232 242 239 242 255 258 274 283 291 294 299 292 282 270 242
271 251 249 247 243 237 237 240 238 239 237 233 235 242 247 235 217 219 213 226 223 228 243 255 253 243 237 238 242 242 239 243 246 249 252 268 280 280 278 287 283 276 267 256
311 260 251 246 242 239 234 239 241 239 238 236 233 235 247 247 223 223 214 230 226 228 233 245 251 247 234 234 240 242 246 249 252 258 258 269 274 276 270 271 275 280 269 257
348 326 272 259 256 247 239 236 244 244 242 239 235 232 240 241 233 221 207 204 216 219 226 248 248 248 248 239 241 242 245 249 255 260 258 268 277 264 264 267 270 270 276 263
352 354 335 284 271 259 250 242 234 242 242 242 235 228 241 246 242 234 214 219 233 219 234 252 253 244 245 245 244 241 244 247 249 253 258 266 269 267 266 267 269 272 268 275
344 345 349 352 333 278 257 249 240 237 237 238 239 234 245 249 248 247 240 231 238 240 254 253 245 247 249 242 245 243 243 247 250 254 259 262 260 261 263 264 268 270 263 268
332 339 339 342 353 360 308 259 245 240 242 240 233 236 241 247 250 247 246 240 229 231 245 254 254 236 240 247 239 244 247 249 252 256 259 263 262 260 261 263 269 263 259 261
309 325 330 329 334 345 348 354 284 253 244 242 240 234 233 237 244 245 242 240 234 236 241 248 248 241 236 239 244 238 242 247 250 255 257 260 262 265 266 270 260 257 262 267
300 303 316 320 323 328 328 326 322 318 259 250 247 243 244 240 241 249 248 248 253 256 263 258 258 250 239 242 245 245 240 243 248 249 253 258 259 261 264 266 265 268 271 274
297 296 304 307 310 311 313 311 302 302 305 313 286 263 255 250 249 250 250 253 251 282 272 253 254 256 253 242 249 249 248 244 244 248 250 252 253 256 258 262 263 273 267 268
291 291 296 292 302 302 303 307 302 303 300 310 305 286 271 250 245 242 231 205 197 224 218 250 262 254 255 251 246 250 251 248 247 249 250 252 253 253 255 253 270 271 267 269
286 286 287 283 289 293 295 300 306 298 296 307 306 302 292 271 239 238 203 193 206 219 233 237 249 254 251 252 247 250 251 251 249 251 251 253 257 256 256 266 271 270 266 268
284 280 280 279 284 288 289 297 300 301 300 295 294 291 292 288 243 221 209 204 225 235 226 237 240 247 257 251 245 245 249 252 252 252 253 252 252 252 255 257 265 270 271 272
286 284 284 283 285 284 288 292 296 292 283 276 284 290 291 286 279 227 227 208 226 225 229 233 241 249 252 255 250 247 248 250 252 252 253 254 253 251 251 257 264 267 269 275
282 281 280 281 279 283 287 288 289 285 281 281 280 283 286 287 281 266 260 236 222 233 241 243 244 244 249 245 252 251 248 250 250 249 251 256 255 252 252 257 259 269 272 266
287 283 282 278 282 285 288 288 285 280 279 280 281 284 287 281 280 264 259 254 236 245 247 245 245 246 248 248 247 254 242 239 245 245 246 248 248 250 250 256 257 258 261 263
281 280 278 279 277 279 283 283 282 277 276 279 283 284 285 282 276 269 262 260 251 243 246 249 252 253 256 252 250 249 252 243 244 244 245 244 244 247 252 253 253 253 258 263
281 278 281 283 284 282 278 279 280 282 282 281 280 280 278 277 277 270 262 254 250 245 243 249 248 249 250 248 250 249 246 245 244 244 246 246 244 247 248 248 251 255 254 264
Height
10953 10956 10955 10960 10967 10970 10971 10972 10971 10970 10963 10970 10974 10964 10965 10966 10967 10965 10969 10968 10969 10970 10972 10972 10974 10975 10977 10979 10981 10984 10984 10984 10984 10985 10987 10987 10987 10988 10989 10989 10989 10991 10990 10990
10945 10947 10945 10949 10954 10961 10962 10962 10963 10962 10958 10956 10960 10963 10962 10964 10964 10963 10963 10968 10967 10967 10969 10972 10974 10976 10978 10980 10983 10984 10985 10985 10984 10984 10984 10985 10985 10985 10986 10987 10987 10987 10987 10987
10935 10935 10937 10940 10944 10950 10954 10953 10952 10954 10949 10952 10955 10958 10960 10959 10959 10960 10963 10961 10967 10965 10967 10969 10973 10977 10977 10980 10983 10984 10984 10984 10983 10982 10983 10984 10984 10984 10984 10983 10982 10981 10983 10984
10924 10924 10929 10931 10932 10936 10943 10946 10945 10950 10950 10950 10952 10951 10957 10953 10956 10959 10957 10959 10958 10961 10963 10966 10969 10973 10977 10978 10980 10982 10982 10981 10981 10980 10980 10978 10978 10977 10978 10979 10978 10979 10980 10980
10914 10915 10919 10922 10923 10924 10931 10935 10938 10941 10943 10944 10945 10947 10948 10947 10951 10954 10953 10953 10954 10955 10958 10962 10965 10968 10971 10974 10977 10980 10979 10979 10979 10979 10979 10978 10975 10975 10976 10976 10976 10976 10977 10976
10903 10905 10907 10913 10916 10919 10922 10926 10927 10932 10936 10939 10937 10940 10942 10942 10947 10948 10949 10948 10945 10955 10955 10960 10961 10964 10967 10969 10972 10976 10977 10978 10978 10979 10979 10978 10978 10977 10976 10976 10975 10974 10973 10973
10888 10892 10896 10898 10901 10904 10910 10916 10920 10925 10931 10934 10930 10933 10932 10934 10938 10941 10938 10941 10944 10951 10955 10955 10958 10959 10963 10966 10969 10971 10972 10974 10975 10977 10977 10977 10976 10975 10974 10973 10972 10971 10970 10969
10878 10884 10882 10886 10892 10896 10901 10906 10911 10914 10920 10926 10926 10924 10924 10929 10932 10934 10933 10939 10943 10944 10955 10952 10954 10956 10958 10961 10965 10967 10967 10969 10971 10972 10974 10973 10972 10972 10971 10970 10970 10969 10968 10967
10864 10868 10866 10869 10880 10887 10890 10896 10895 10902 10910 10917 10918 10915 10917 10916 10923 10927 10926 10935 10934 10933 10935 10945 10947 10951 10952 10956 10959 10961 10963 10964 10966 10967 10969 10969 10969 10968 10966 10966 10965 10964 10964 10964
10854 10857 10856 10860 10869 10874 10877 10873 10880 10886 10894 10903 10907 10908 10903 10901 10912 10911 10924 10923 10925 10931 10932 10934 10940 10944 10947 10949 10953 10955 10957 10959 10961 10963 10964 10964 10965 10964 10963 10961 10961 10960 10959 10960
10848 10847 10844 10847 10848 10849 10862 10865 10868 10875 10882 10890 10899 10904 10890 10897 10904 10901 10916 10915 10929 10928 10924 10923 10931 10937 10940 10942 10946 10949 10950 10951 10955 10958 10958 10959 10961 10960 10958 10957 10954 10955 10955 10956
10844 10840 10839 10837 10833 10846 10848 10855 10858 10865 10873 10881 10892 10897 10882 10873 10878 10877 10902 10904 10905 10912 10918 10920 10924 10928 10932 10935 10937 10942 10944 10946 10947 10951 10952 10953 10953 10953 10953 10952 10951 10950 10951 10950
10843 10838 10834 10830 10831 10834 10837 10842 10846 10850 10856 10863 10874 10885 10862 10862 10873 10876 10887 10890 10895 10906 10911 10914 10918 10920 10923 10927 10929 10932 10936 10938 10939 10941 10943 10944 10945 10946 10946 10946 10946 10946 10946 10943
10842 10838 10834 10829 10827 10824 10826 10828 10832 10833 10837 10845 10860 10867 10857 10859 10867 10870 10877 10891 10899 10906 10904 10906 10911 10913 10915 10921 10923 10924 10927 10929 10930 10933 10932 10933 10935 10937 10939 10938 10937 10939 10938 10936
10839 10836 10832 10828 10826 10823 10819 10819 10820 10822 10824 10831 10840 10845 10859 10847 10842 10853 10859 10873 10892 10900 10898 10897 10895 10903 10906 10907 10913 10915 10918 10920 10922 10923 10922 10923 10926 10927 10928 10929 10930 10929 10928 10926
10835 10832 10829 10827 10824 10822 10819 10815 10813 10813 10814 10817 10819 10827 10825 10831 10822 10828 10839 10861 10879 10885 10885 10883 10882 10887 10898 10897 10898 10906 10907 10908 10911 10912 10912 10913 10917 10919 10920 10921 10921 10921 10919 10919
10828 10826 10824 10822 10820 10817 10816 10813 10810 10806 10806 10806 10809 10814 10816 10819 10824 10819 10846 10860 10874 10886 10886 10876 10869 10873 10881 10888 10890 10892 10897 10898 10899 10900 10903 10904 10909 10910 10911 10912 10913 10913 10912 10911
10821 10820 10818 10816 10815 10812 10810 10807 10804 10804 10804 10805 10806 10806 10805 10811 10814 10815 10836 10850 10859 10872 10862 10850 10849 10855 10861 10877 10881 10882 10884 10887 10889 10890 10892 10894 10898 10901 10902 10904 10900 10903 10902 10900
10813 10812 10811 10809 10808 10804 10802 10800 10798 10798 10797 10800 10798 10796 10793 10795 10797 10803 10819 10825 10827 10836 10809 10831 10834 10835 10839 10857 10866 10866 10869 10872 10877 10880 10882 10883 10888 10892 10893 10891 10892 10892 10891 10889
10804 10803 10803 10800 10800 10797 10792 10790 10789 10792 10790 10792 10790 10787 10783 10783 10787 10794 10806 10802 10800 10798 10799 10805 10814 10815 10820 10832 10847 10848 10852 10856 10862 10866 10869 10876 10880 10880 10883 10883 10885 10882 10881 10879
10793 10793 10793 10791 10791 10788 10783 10781 10780 10781 10785 10781 10782 10779 10776 10775 10777 10783 10789 10791 10792 10780 10780 10787 10790 10795 10801 10811 10822 10828 10832 10838 10843 10852 10855 10863 10867 10871 10872 10873 10872 10871 10871 10870
10780 10780 10779 10778 10776 10773 10774 10773 10770 10768 10771 10771 10771 10770 10766 10768 10767 10769 10770 10774 10771 10769 10768 10769 10772 10782 10792 10796 10805 10806 10816 10823 10827 10832 10839 10849 10855 10861 10861 10861 10863 10860 10861 10860
10766 10766 10766 10763 10760 10757 10760 10760 10757 10755 10754 10756 10756 10757 10756 10751 10755 10757 10756 10759 10758 10755 10755 10757 10761 10764 10771 10779 10782 10791 10800 10804 10811 10817 10824 10834 10843 10847 10847 10846 10851 10853 10852 10848
10751 10746 10750 10748 10746 10744 10739 10743 10743 10740 10736 10735 10736 10739 10739 10741 10738 10738 10740 10740 10741 10748 10743 10744 10745 10747 10755 10762 10770 10775 10781 10780 10789 10796 10806 10816 10823 10827 10832 10835 10839 10842 10842 10838
10733 10730 10727 10732 10733 10731 10726 10721 10720 10720 10720 10719 10715 10715 10718 10719 10723 10725 10723 10720 10720 10728 10727 10728 10731 10733 10735 10739 10749 10759 10760 10764 10771 10777 10785 10794 10803 10809 10816 10819 10821 10826 10827 10820
10713 10712 10715 10717 10711 10710 10709 10704 10699 10695 10693 10695 10696 10692 10693 10696 10698 10700 10701 10701 10701 10708 10712 10710 10710 10714 10715 10720 10723 10731 10741 10746 10752 10760 10769 10776 10786 10795 10801 10804 10805 10810 10811 10806